IRIDIUM 33 DEB, 38228

Orbit data source: Space-Track

IRIDIUM 33 DEB, 38228 is space debris in LEO originally from a launch on Sun, 14 Sep 1997 UTC launched from the Tyuratam Missile And Space Complex (TTMTR). The debris from Iridium 33, an American commercial communications satellite, has been tracked extensively since its accidental collision with the defunct Russian satellite Cosmos 2251 in 2009. This event, occurring at high speed in low Earth orbit (LEO), generated thousands of pieces of space debris, significantly increasing the risk of further collisions. The Iridium 33 debris cloud has impacted space traffic management and orbital debris mitigation strategies, making it a subject of ongoing study in space situational awareness.

Loading next visibility...
Identifier
38228, 1997-051ZC
Orbit
LEO
Country
Flag of USUS
Related business
Manufacturer
Unknown
Mission
Spacecraft
Bus & Motor
Unknown
Mass
Unknown
Launch date (UTC)
1997-09-14 (28 years ago)
Launch vehicle
Unknown
Launch site
Tyuratam Missile And Space Complex (TTMTR)
Object type
Payload
Rocket body
Debris
Shape & HBR
Unknown shape, 0.1 m
Radar Cross Section
Small (<0.1 m²)

Expand to show TLE details & history
Last TLE update: 2 days ago

TLE from 2 days ago
0 IRIDIUM 33 DEB
1 38228U 97051ZC  26036.24687735  .00001291  00000-0  50753-3 0  9990
2 38228  86.2939  25.2843 0064951  17.3113  41.7892 14.27392030855591
Epoch: 2026-02-05T05:55Z
TLE epoch observation values (Epoch: 2026-02-05T05:55:30.203Z)
Latitude
59.49118°
Longitude
167.28385°
Altitude
776.005 km
Speed
7.49 km/s
True Right ascension
02h 06m 14s
True Declination
59° 20' 27"
Sunlit
Object was in daylight at epoch
Visualization orbit readout
Latitude
Unknown
Longitude
Unknown
Altitude
Unknown
Speed
Unknown
Apparent Right ascension
Unknown
Apparent Declination
Unknown
Sunlit
N/A
Visualization observer readout
Local Sidereal Time
14:41:31
Azimuth
Unknown
Elevation
Unknown
Doppler factor
Unknown
Orbital elements
Apogee altitude
844.044 km
Perigee altitude
750.831 km
Semi-major axis
7,175.575 km
Eccentricity
0.0065
Inclination
86.2939°
RAAN
25.2843°
Arg. of periapsis
17.3113°
True anomaly
42.2882°
Mean anomaly
41.7892°
Eccentric anomaly
42.0384°
Mean motion
3.57074 °/min
Orbital period
100.82 mins
BSTAR
0.00050753
Loading maneuver chart data...
Computing Atmospheric mass density...
Loading historical data...
Loading historical data...
Loading historical data...
Loading historical data...
Loading historical data...
Loading historical data...
Loading historical data...

Documentation

Showing up to 5 results
|